Regional Weather Roundup
Issued by NWS

Home | Current Version | Previous Version | Graphics & Text | Print | Product List | Glossary On
Versions: 1 2 3 4 5 6 7 8 9 10 11 12 13 14 15 16 17 18 19 20 21 22 23 24 25 26 27 28 29 30 31 32 33 34 35 36 37 38 39 40 41 42 43 44 45 46 47 48 49 50
000
ASUS43 KMPX 270901
RWRMN
WEATHER ROUNDUP FOR MINNESOTA
NATIONAL WEATHER SERVICE TWIN CITIES/CHANHASSEN MN
400 AM CDT WED AUG 27 2014


NOTE: "FAIR" INDICATES FEW OR NO CLOUDS BELOW 12,000 FEET WITH NO
SIGNIFICANT WEATHER AND/OR OBSTRUCTIONS TO VISIBILITY. N/A MEANS
CURRENT SKY AND/OR WEATHER CONDITIONS ARE NOT AVAILABLE.

MNZ060>063-068>070-271000-
   Twin Cities Metro

CITY           SKY/WX    TMP DP  RH WIND       PRES   REMARKS
TWIN CITIES    MOCLDY    62  57  83 NE7       30.18F
ST PAUL        MOCLDY    62  56  80 E3        30.18F
CRYSTAL        CLOUDY    62  56  80 NE5       30.17F
BLAINE         CLOUDY    61  57  88 NE5       30.18F
LAKEVILLE      CLOUDY    59  55  88 CALM      30.19S
EDEN PRAIRIE   MOCLDY    63  55  75 NE5       30.17F
SOUTH ST PAUL  PTCLDY    62  55  77 NE3       30.18F
LAKE ELMO      CLOUDY    59  57  94 CALM      30.19F
$$
MNZ001>005-007-008-013>017-022>024-027-028-271000-
   Northwest Minnesota

CITY           SKY/WX    TMP DP  RH WIND       PRES   REMARKS
BEMIDJI        FOG       45  45  99 CALM      30.19S VSB 1/2
HALLOCK        CLEAR     46  45  93 S7        30.15S
ROSEAU         CLEAR     46  41  81 SE3       30.17S
WARROAD        CLEAR     46  43  87 CALM      30.18S
THIEF RVR FALL CLEAR     48  48 100 S5        30.18S
CROOKSTON      FOG       52  52 100 S3        30.18S VSB 1/4
FOSSTON        CLEAR     45  43  93 CALM      30.20S FOG
DETROIT LAKES  CLEAR     55  54  94 W3        30.20S
MOORHEAD       MOCLDY    57  57 100 CALM      30.19F FOG
PARK RAPIDS    PTCLDY    55  54  96 CALM      30.19F
MAHNOMEN       FAIR      51  51  99 CALM      30.19S FOG
$$
MNZ006-009>011-018-025>026-271000-
   North Central Minnesota

CITY           SKY/WX    TMP DP  RH WIND       PRES   REMARKS
BAUDETTE       PTCLDY    45  43  93 CALM      30.18F
FLAG ISLAND    CLOUDY    55  50  82 SW9       30.15S
INTL FALLS     PTCLDY    36  35  96 CALM      30.19S
WASKISH        MOCLDY    46  46 100 CALM      30.19S
BIG FORK       PTCLDY    45  43  93 CALM      30.20F
LONGVILLE      CLEAR     48  48 100 CALM      30.19F
GRAND RAPIDS     N/A     46  45  93 CALM      30.20F VSB 3/4
CRANE LAKE     CLEAR     37  37 100 CALM      30.21S
ORR            CLEAR     41  39  93 CALM      30.18S
COOK           MOCLDY    43  43 100 CALM      30.20S FOG
WALKER         FAIR      52  51  97 CALM      30.19F
$$
MNZ012-019>021-037-271000-
   Northeast Minnesota

CITY           SKY/WX    TMP DP  RH WIND       PRES   REMARKS
DULUTH         MOCLDY    53  49  86 NW6       30.19S
ELY            PTCLDY    46  45  93 CALM      30.19S
HIBBING        MOCLDY    43  42  97 CALM      30.20S FOG
EVELETH        MOCLDY    46  46 100 CALM      30.21S
DULUTH HARBOR  CLOUDY    55  54  94 SW5       30.20S
TWO HARBORS    PTCLDY    50  45  81 CALM      30.17S
SILVER BAY     PTCLDY    48  48 100 NW3       30.17R
GRAND MARAIS     N/A     55  48  77 NW7       30.15S
G MARAIS ARPRT MOCLDY    46  43  87 W3        30.18S
$$
MNZ029>031-032-039>041-046>048-054>057-064-271000-
   West Central Minnesota

CITY           SKY/WX    TMP DP  RH WIND       PRES   REMARKS
FERGUS FALLS   CLOUDY    59  57  94 CALM      30.20S
WHEATON        MOCLDY    55  54  94 CALM      30.21S
MORRIS         CLOUDY    57  57 100 CALM      30.19S
ALEXANDRIA     CLOUDY    58  56  93 CALM      30.21R
ELBOW LAKE     CLOUDY    58  56  94 CALM      30.19S
WADENA         CLOUDY    55  55 100 CALM      30.20S
GLENWOOD       CLOUDY    57  55  94 CALM      30.21R
APPLETON       PTCLDY    57  55  94 CALM      30.19S
BENSON         MOCLDY    55  54  94 CALM      30.19F
ORTONVILLE     CLOUDY    61  55  82 CALM      30.18F
MADISON        CLEAR     57  55  94 CALM      30.19S
WILLMAR        MOCLDY    61  55  82 CALM      30.20S
$$
MNZ033>034-036-042>043-049>051-058-059-271000-
   Central Minnesota

CITY           SKY/WX    TMP DP  RH WIND       PRES   REMARKS
ST CLOUD       CLOUDY    60  55  83 NE3       30.19S
SAUK CENTRE    CLOUDY    57  56  95 CALM      30.21R
PAYNESVILLE    CLOUDY    57  55  94 VRB3      30.20S
AITKIN         CLOUDY    55  52  88 CALM      30.19F
PINE RIVER     CLOUDY    55  55 100 CALM      30.22F
BRAINERD       CLOUDY    56  55  97 CALM      30.21S
STAPLES        CLOUDY    55  55 100 CALM      30.20S
LONG PRAIRIE   DRIZZLE   55  55 100 CALM      30.21R
LITTLE FALLS   PTCLDY    55  54  94 CALM      30.20F
LITCHFIELD     CLOUDY    63  61  94 CALM      30.19S
BUFFALO        CLOUDY    60  56  86 CALM      30.19F
MAPLE LAKE     CLOUDY    61  59  92 CALM      30.19F
$$
MNZ037-044-045-052-053-271000-
   East Central Minnesota

CITY           SKY/WX    TMP DP  RH WIND       PRES   REMARKS
PRINCETON      CLOUDY    59  55  88 NE5       30.20F
MORA           MOCLDY    54  50  87 CALM      30.21F
CAMBRIDGE      MOCLDY    59  52  77 CALM      30.19F
RUSH CITY      LGT RAIN  56  54  92 CALM      30.20F
MOOSE LAKE     CLOUDY    52  52 100 CALM      30.18S
HINCKLEY       PTSUNNY   55  54  94 CALM      30.19F
CLOQUET        CLOUDY    52  50  93 W3        30.20S
MCGREGOR       CLOUDY    54  52  94 CALM      30.20F
$$
MNZ071>073-080-081-089-090-097-098-271000-
   Southwest Minnesota

CITY           SKY/WX    TMP DP  RH WIND       PRES   REMARKS
MONTEVIDEO     CLEAR     57  55  94 CALM      30.19S
GRANITE FALLS  CLEAR     58  57  96 NE5       30.20S
CANBY          CLEAR     57  56  97 CALM      30.20R
MARSHALL       PTCLDY    61  55  82 CALM      30.18R
REDWOOD FALLS  CLOUDY    62  57  83 E3        30.18S
OLIVIA         PTCLDY    61  55  82 CALM      30.18S
PIPESTONE      CLEAR     57  55  94 E3        30.19S
WINDOM         CLEAR     59  55  88 CALM      30.19F
WORTHINGTON    CLEAR     55  54  94 CALM      30.20S
JACKSON        PTCLDY    55  54  94 CALM      30.20R
TRACY          CLOUDY    62  58  89 CALM      30.18F
SLAYTON        CLEAR     56  56  99 CALM      30.20F
$$
MNZ065>067-074>077-082>085-091>093-271000-
   South Central Minnesota

CITY           SKY/WX    TMP DP  RH WIND       PRES   REMARKS
MANKATO        CLOUDY    64  55  72 NE8       30.18S
NEW ULM        CLOUDY    63  57  82 E5        30.18S
ST JAMES       CLOUDY    61  59  94 CALM      30.19F
FAIRMONT       PTCLDY    57  54  88 N3        30.19R
GLENCOE        MOCLDY    62  55  77 CALM      30.18S
FARIBAULT      CLOUDY    64  55  72 NE5       30.18F
OWATONNA       CLOUDY    63  57  82 CALM      30.19S
WASECA         CLOUDY    61  55  82 CALM      30.20S
ALBERT LEA     CLOUDY    61  57  88 CALM      30.18S
$$
MNZ078>079-086>088-094>096-271000-
   Southeast Minnesota

CITY           SKY/WX    TMP DP  RH WIND       PRES   REMARKS
ROCHESTER      CLOUDY    63  57  81 CALM      30.20S
RED WING       MOCLDY    63  55  77 CALM      30.18S
STANTON        CLOUDY    62  58  87 NE5       30.18S
DODGE CENTER   CLOUDY    61  59  94 NE6       30.18S
WINONA         CLOUDY    61  59  94 N3        30.18S
AUSTIN         MOCLDY    59  55  88 NE3       30.17F
PRESTON        MOCLDY    58  58 100 CALM      30.19S
$$
ABBREVIATIONS USED IN REMARKS
   TC - TEMPERATURES IN CELSIUS
  WCI - WIND CHILL INDEX
   HX - HEAT INDEX
  VSB - VISIBILITY
$$


USA.gov is the U.S. government's official web portal to all federal, state and local government web resources and services.